Temperature
25 23 22 23 23 24 24 23 23 23 24 23 22 22 21 21 20 20 20 20 20 20 20 20 20 20 20 20 20 19 19 19 18 18 18 18 18 18 18 18 18 18 17 17
23 23 24 24 24 24 24 23 23 23 23 23 22 22 21 21 20 21 20 20 20 20 20 20 20 20 20 20 19 19 19 19 18 18 18 18 18 18 18 18 18 17 17 17
24 25 25 25 25 24 24 23 23 23 23 22 22 22 21 21 21 21 21 21 20 20 20 20 20 20 20 20 19 19 19 19 18 18 18 18 18 18 18 17 17 17 17 17
24 25 26 25 25 24 24 24 24 23 22 21 22 21 21 20 20 20 20 21 20 20 20 20 20 20 20 20 19 19 19 19 18 18 18 18 17 18 18 17 17 17 17 17
25 26 26 26 25 25 24 24 23 22 21 20 21 20 20 20 20 20 20 21 21 21 20 20 20 20 20 20 19 19 19 19 18 18 18 17 17 17 17 17 17 17 17 17
25 25 26 26 25 25 24 22 21 19 19 20 20 20 20 19 20 20 20 20 21 20 20 20 20 20 20 20 19 19 19 18 18 18 18 17 17 17 17 17 17 17 17 17
25 25 25 25 25 24 23 21 21 21 19 20 20 20 20 20 20 20 20 21 21 21 20 20 20 20 20 19 19 19 19 18 18 18 18 17 17 17 17 17 17 17 17 17
23 23 25 25 25 24 22 21 21 21 20 19 20 20 20 21 21 21 21 21 21 21 20 20 20 20 20 19 19 19 19 18 18 18 18 17 17 17 17 17 17 17 17 17
22 23 24 25 24 24 22 20 20 19 19 19 19 19 20 20 20 20 20 20 20 20 20 20 20 20 19 19 19 19 18 18 18 18 17 17 17 17 17 17 17 17 17 17
22 23 23 24 24 23 22 19 18 18 19 20 20 20 19 20 20 20 19 20 20 20 20 20 20 20 19 19 19 18 18 18 18 18 17 17 17 17 17 17 17 17 16 16
21 22 22 22 23 23 22 20 17 16 18 19 20 20 20 19 19 19 19 20 21 21 20 20 20 20 19 19 19 18 18 18 18 17 17 17 17 17 17 17 17 16 16 16
19 18 20 21 22 22 22 20 18 20 18 17 18 19 21 19 19 19 19 20 21 21 21 20 20 19 19 18 18 18 18 18 18 17 17 17 17 17 16 16 16 16 16 16
19 18 19 20 21 21 21 20 18 17 16 16 18 20 19 18 18 19 19 19 20 20 20 20 19 19 19 18 18 18 18 17 17 17 17 17 17 16 16 16 16 16 16 16
19 17 19 20 20 20 21 20 18 18 17 17 18 19 19 18 17 18 18 19 19 19 19 19 19 19 19 18 18 18 17 17 17 17 17 17 17 16 16 16 16 16 16 15
18 18 18 19 20 20 20 20 19 19 18 18 19 18 18 18 17 18 18 18 18 18 18 18 18 18 18 18 18 17 17 17 17 17 17 17 16 16 16 16 16 15 15 15
16 18 18 19 20 20 20 20 20 19 19 18 19 18 17 17 18 17 17 17 17 17 18 18 18 18 18 18 18 17 17 17 17 17 16 16 16 16 16 16 15 15 15 15
15 16 17 18 19 20 19 19 19 19 18 18 18 18 17 16 16 17 17 17 17 17 17 17 17 17 17 17 17 17 17 17 16 16 16 16 16 16 15 15 15 15 15 15
15 14 14 16 18 19 19 19 19 19 18 18 18 17 16 17 17 18 18 17 17 17 17 17 17 17 17 17 17 17 17 16 16 16 16 16 16 15 15 15 15 15 15 15
13 14 14 14 17 18 18 19 18 18 18 17 17 16 16 16 16 17 17 17 18 18 17 17 17 17 17 17 17 17 16 16 16 16 16 15 15 15 15 15 15 15 14 14
13 13 14 14 17 18 18 19 19 19 18 17 17 16 15 16 15 16 18 17 17 17 17 17 17 17 17 17 16 16 16 16 16 16 15 15 15 15 15 15 15 14 14 14
15 14 14 14 16 16 17 18 19 18 18 18 17 17 16 16 16 17 18 17 17 17 17 17 17 17 17 16 16 16 16 16 15 15 15 15 15 15 14 14 14 14 14 14
14 14 14 13 16 17 17 17 17 17 18 18 18 18 17 17 17 17 17 17 17 17 17 16 16 16 16 16 16 16 16 15 15 15 15 15 14 14 14 14 14 14 14 14
13 14 13 14 15 16 17 17 18 19 18 18 18 18 18 17 17 17 17 17 17 16 16 16 16 16 15 15 15 16 15 15 15 15 15 14 14 14 14 14 14 13 13 13
13 12 12 13 14 15 17 17 18 18 18 19 18 18 18 17 17 16 16 16 16 16 16 16 16 15 15 15 15 15 15 15 14 14 14 14 14 14 13 13 13 13 13 13
13 13 12 13 14 15 17 17 18 18 18 18 18 18 17 17 17 16 16 16 16 16 16 15 15 15 15 15 15 15 15 15 14 14 14 13 13 13 13 13 13 13 13 12
12 12 13 14 15 14 16 17 17 17 17 17 17 17 17 17 17 16 16 15 15 15 15 15 15 15 15 15 15 14 14 14 14 14 14 13 13 13 13 13 13 13 12 12
Wind_Speed
2 4 4 8 9 5 3 2 1 3 2 2 2 3 4 5 5 5 5 5 5 5 4 4 4 5 5 5 5 5 4 3 3 2 2 1 1 1 0 1 2 2 2 1
4 4 8 5 4 4 4 2 1 2 1 2 1 2 3 6 7 7 7 7 7 4 3 4 4 4 5 5 5 4 4 4 4 3 2 2 2 1 1 1 1 2 2 2
6 5 2 4 4 4 2 5 4 3 2 3 3 4 2 3 4 4 5 6 6 7 6 6 6 6 5 6 6 5 5 4 3 3 2 2 2 1 1 1 1 2 2 2
4 4 2 3 4 5 4 6 6 4 3 1 2 2 6 2 3 5 6 6 7 6 6 6 6 6 6 6 5 4 4 4 3 4 3 3 3 2 2 2 1 2 2 2
4 2 2 2 4 5 4 2 4 3 3 2 2 1 7 2 3 6 7 7 6 7 7 7 8 7 6 5 5 4 3 3 3 4 5 4 3 3 1 1 1 2 2 2
4 2 2 3 1 4 5 7 7 6 5 1 2 3 6 3 5 4 5 6 6 5 5 6 6 5 4 4 4 4 4 3 3 4 4 5 5 3 2 2 2 2 2 2
5 4 1 2 2 2 5 6 4 4 3 4 2 3 7 6 5 5 5 5 5 5 5 5 6 6 5 5 5 4 5 4 4 4 5 5 5 5 5 4 3 3 2 2
1 6 3 2 5 5 4 8 7 5 5 4 1 4 6 5 3 2 2 2 3 4 4 5 6 6 6 6 5 5 5 5 4 4 4 4 4 4 4 4 4 4 3 3
4 5 5 2 1 7 5 3 6 7 2 1 4 6 6 2 3 2 0 2 3 4 4 5 5 5 5 5 5 5 5 4 4 4 4 4 4 4 4 3 3 3 3 3
6 3 5 4 4 5 5 7 6 6 5 3 4 4 5 5 5 3 2 2 3 3 4 4 4 5 4 4 4 3 3 4 4 4 4 4 3 3 3 3 3 3 3 2
4 4 4 3 1 1 3 4 5 4 4 6 4 6 5 6 5 4 4 4 4 4 5 5 4 4 4 3 3 3 3 2 2 3 3 3 2 2 2 2 3 3 2 2
3 5 1 4 4 1 3 5 6 4 3 4 4 7 3 2 3 2 3 3 3 4 4 4 4 4 3 3 3 3 3 3 3 2 2 2 2 1 2 2 2 1 1 2
5 6 2 6 5 4 2 2 3 5 5 5 4 6 2 3 3 2 1 1 1 2 2 2 3 4 4 3 3 3 3 3 2 2 2 2 2 2 2 2 2 1 1 1
6 5 6 8 7 4 1 1 2 5 4 5 7 6 4 3 2 3 2 1 1 1 2 2 3 3 3 3 4 3 3 2 2 2 2 2 2 3 3 2 2 2 1 1
5 4 3 3 3 3 3 3 3 5 7 7 7 7 6 5 4 3 1 0 1 1 1 2 2 2 3 3 3 3 3 2 2 2 2 3 2 1 1 2 2 2 2 2
4 4 2 1 1 1 2 2 3 4 3 4 3 6 4 2 1 1 1 1 1 1 1 1 1 1 3 4 4 3 2 2 3 3 3 2 1 1 1 1 1 1 2 1
2 5 4 3 3 2 3 5 5 4 4 6 6 7 1 1 3 4 4 2 2 2 2 1 2 2 2 3 3 4 3 3 3 2 2 1 1 1 1 1 0 1 2 1
6 5 4 2 2 5 8 3 4 5 4 4 4 3 3 4 4 3 2 3 2 2 2 1 1 1 1 1 2 3 3 3 3 2 2 2 1 2 1 1 1 2 1 1
5 7 5 4 3 5 6 2 4 4 5 4 3 2 1 2 3 2 2 2 3 2 1 1 1 0 0 1 1 2 2 2 2 2 2 2 2 2 1 2 2 2 1 1
5 5 5 4 4 6 7 3 2 3 4 4 5 5 3 3 0 4 3 2 1 1 1 0 1 1 1 0 1 2 2 2 2 3 3 2 2 2 2 2 2 1 1 2
3 4 4 4 4 7 6 2 3 4 7 4 5 5 5 5 5 4 1 1 1 1 1 1 1 1 1 1 2 2 2 2 3 2 1 1 1 1 1 1 1 1 1 1
5 4 4 4 3 7 3 3 6 7 3 2 4 5 5 4 3 2 1 1 1 1 1 1 1 0 0 1 3 2 2 2 1 1 1 1 1 1 1 1 1 1 1 1
5 6 6 7 7 5 3 5 4 3 3 3 4 4 5 4 4 3 2 2 1 1 1 1 1 0 1 1 2 3 2 1 1 1 1 1 0 0 0 1 1 1 1 1
2 2 3 3 6 5 6 5 3 3 4 4 4 5 5 5 4 3 2 2 1 1 1 1 1 1 1 2 1 2 2 2 2 1 1 1 1 0 1 0 1 1 1 2
4 3 2 4 6 5 6 5 4 4 3 2 2 4 5 5 5 4 3 3 3 2 1 1 2 2 3 2 2 2 2 2 2 2 1 1 1 1 1 1 2 2 3 4
5 6 5 7 7 5 8 6 4 4 4 4 3 3 4 5 6 5 4 4 3 3 2 1 2 3 3 2 3 2 2 3 3 2 2 1 1 1 1 1 2 3 3 3
Wind_Direction
90 93 206 211 198 189 174 166 230 268 202 121 188 209 194 173 174 178 185 191 204 216 209 190 182 176 172 169 169 174 172 168 153 151 159 157 189 198 215 245 244 247 257 249
53 257 235 201 164 156 153 160 233 309 48 143 175 244 206 183 196 195 195 199 207 211 194 187 182 177 176 180 186 178 182 181 175 178 173 167 166 186 196 248 265 257 248 249
195 239 179 153 160 164 213 189 197 193 25 43 63 335 270 236 210 204 200 202 204 202 199 196 190 189 184 189 191 189 185 183 182 166 136 111 76 40 352 287 279 269 252 244
228 252 161 169 204 173 235 218 175 158 116 313 94 282 291 263 235 223 226 216 215 212 202 197 196 195 195 198 190 183 176 176 178 159 153 162 177 202 225 226 248 280 264 255
243 209 177 211 226 175 202 135 121 121 124 53 31 147 290 328 265 249 237 227 222 214 205 201 200 197 192 186 180 183 169 176 182 176 177 180 197 209 215 211 247 273 287 277
248 245 200 200 178 151 127 74 57 49 69 1 251 172 278 253 239 259 240 221 217 212 205 199 195 179 175 173 170 172 172 195 197 191 191 191 197 199 201 222 234 261 277 281
329 320 283 150 95 51 94 95 45 2 6 251 250 182 250 256 235 228 237 225 208 202 192 187 180 178 181 181 183 183 181 201 205 201 205 205 204 200 205 217 224 235 255 264
257 297 275 201 181 181 164 140 157 195 220 267 293 232 252 267 264 261 242 190 169 181 185 184 185 182 187 189 189 191 191 202 206 209 215 211 203 205 216 219 220 225 237 246
180 256 294 269 182 140 139 150 156 135 135 245 276 282 297 288 306 315 51 123 163 177 181 182 179 177 182 187 192 194 194 201 207 211 213 211 207 207 215 221 218 230 241 247
161 228 297 314 61 39 122 139 100 117 150 233 279 271 255 256 258 265 250 203 189 178 182 182 182 184 186 189 187 181 181 197 209 210 215 220 215 211 209 206 217 231 242 247
130 166 304 8 80 202 89 89 99 112 150 163 235 266 232 220 223 226 237 228 202 191 190 190 188 186 180 175 177 185 187 194 209 211 209 214 212 211 209 218 229 236 243 234
127 128 242 271 277 249 140 147 145 154 206 179 186 259 292 210 227 220 242 243 219 204 194 184 175 168 171 182 186 192 189 194 214 210 191 204 205 201 215 230 236 235 248 252
128 112 75 341 338 358 59 99 122 127 123 159 186 257 340 19 12 348 257 234 222 201 178 161 163 174 184 191 198 202 200 207 207 191 178 188 208 210 219 230 230 221 240 263
118 111 161 195 219 224 236 195 150 134 155 198 219 245 301 326 333 332 328 276 146 159 169 172 188 189 190 196 200 201 208 205 189 180 186 203 222 222 220 219 219 220 220 238
105 137 186 225 227 183 195 212 192 189 190 192 226 223 243 237 230 246 272 17 105 112 139 180 209 213 197 194 202 205 203 191 182 178 203 228 236 226 216 210 216 224 226 237
85 138 142 291 276 195 232 239 206 209 199 214 226 247 260 246 165 223 220 181 177 205 206 199 198 214 211 199 195 197 191 188 171 180 212 232 227 205 229 232 227 235 245 249
101 127 125 240 295 50 271 238 206 203 206 183 210 238 224 246 220 218 216 207 210 225 215 201 220 223 219 207 193 190 190 171 164 177 193 201 208 222 252 260 288 270 265 260
137 119 127 143 92 221 241 249 195 190 213 203 217 235 209 220 231 228 205 203 222 232 218 232 288 329 303 203 178 166 157 158 167 181 205 208 209 234 250 267 258 263 286 271
143 136 125 133 191 260 287 245 179 184 241 213 203 212 188 37 48 326 253 218 215 220 227 228 202 207 69 55 121 136 148 160 168 203 219 220 213 227 242 262 275 261 256 280
68 96 120 136 173 229 244 256 197 135 262 227 190 186 174 104 123 266 265 249 248 244 105 83 77 76 71 28 117 141 158 166 206 224 232 229 214 217 238 254 269 262 241 255
62 68 125 164 210 254 252 255 114 169 244 230 195 196 184 194 215 233 233 235 235 220 186 133 108 114 193 171 154 156 172 219 234 220 200 225 228 215 225 245 269 277 264 270
174 158 173 152 195 253 253 136 183 223 245 185 193 197 192 205 206 204 194 198 187 171 167 144 123 303 263 165 166 170 221 243 218 177 171 203 227 235 238 234 276 259 223 248
195 191 188 190 214 249 257 238 248 213 216 219 201 206 182 189 212 213 205 200 214 202 186 185 166 299 319 249 185 190 227 214 175 160 196 209 112 33 38 158 295 318 294 259
259 159 157 256 271 279 283 285 285 255 231 234 219 202 188 199 202 202 204 207 230 249 220 190 165 186 255 265 239 215 209 173 165 177 185 153 133 72 10 353 246 258 272 270
226 176 185 259 279 308 291 270 267 278 255 231 239 224 201 189 205 208 211 216 224 240 220 190 198 214 238 244 235 227 194 164 170 178 171 178 184 198 291 300 261 243 245 228
207 188 189 232 232 223 261 269 265 253 251 232 227 238 221 200 199 203 209 210 212 223 226 222 234 236 247 234 229 227 193 171 171 190 196 202 216 224 245 283 322 317 281 261
Height
1490 1496 1501 1498 1497 1498 1501 1507 1510 1506 1500 1504 1507 1507 1505 1505 1506 1507 1509 1510 1510 1511 1513 1514 1515 1517 1518 1519 1520 1520 1522 1523 1524 1525 1526 1527 1527 1528 1529 1530 1530 1530 1531 1531
1496 1498 1490 1489 1492 1496 1501 1508 1509 1505 1500 1504 1508 1507 1504 1503 1504 1505 1506 1507 1508 1510 1511 1512 1514 1515 1516 1517 1518 1519 1520 1521 1522 1523 1525 1526 1526 1527 1528 1528 1528 1529 1529 1529
1495 1491 1486 1490 1494 1498 1501 1506 1506 1507 1504 1504 1507 1511 1506 1503 1503 1504 1505 1505 1506 1507 1508 1509 1511 1512 1514 1515 1516 1517 1518 1520 1521 1523 1523 1524 1525 1525 1526 1526 1527 1527 1528 1528
1491 1486 1487 1490 1494 1496 1504 1495 1498 1503 1512 1519 1514 1528 1511 1505 1503 1502 1502 1503 1503 1505 1506 1507 1508 1510 1511 1513 1515 1516 1517 1519 1520 1521 1521 1522 1522 1523 1523 1524 1525 1526 1526 1526
1489 1485 1486 1490 1489 1490 1495 1492 1497 1503 1512 1521 1519 1527 1519 1507 1506 1501 1499 1500 1501 1502 1504 1504 1506 1508 1510 1511 1513 1514 1516 1517 1518 1519 1520 1520 1521 1521 1522 1523 1523 1523 1524 1524
1485 1482 1483 1484 1484 1486 1490 1497 1503 1512 1520 1533 1524 1528 1524 1512 1504 1499 1496 1497 1498 1499 1501 1502 1504 1506 1508 1510 1511 1513 1514 1514 1516 1517 1517 1518 1518 1519 1519 1520 1520 1521 1521 1521
1491 1485 1482 1482 1487 1489 1493 1510 1529 1532 1540 1536 1522 1524 1519 1501 1496 1495 1494 1494 1495 1497 1498 1499 1501 1503 1505 1507 1508 1510 1511 1512 1513 1514 1515 1515 1516 1517 1517 1517 1518 1518 1518 1519
1503 1502 1485 1481 1485 1492 1496 1504 1527 1538 1541 1535 1523 1524 1509 1495 1493 1492 1493 1492 1493 1495 1496 1497 1499 1501 1503 1505 1506 1508 1508 1510 1511 1512 1513 1513 1514 1514 1515 1515 1516 1516 1516 1516
1503 1501 1482 1479 1480 1484 1496 1504 1505 1524 1531 1535 1528 1517 1503 1493 1492 1491 1491 1491 1492 1493 1494 1496 1497 1499 1501 1503 1504 1505 1506 1508 1509 1510 1510 1511 1511 1512 1512 1513 1513 1513 1513 1514
1490 1499 1488 1482 1481 1485 1489 1499 1512 1524 1537 1539 1528 1521 1514 1499 1495 1492 1491 1491 1491 1492 1494 1495 1496 1497 1499 1501 1502 1503 1505 1506 1507 1507 1508 1508 1509 1509 1510 1510 1510 1511 1511 1511
1486 1498 1495 1489 1491 1494 1495 1502 1511 1523 1524 1534 1536 1523 1496 1494 1492 1491 1490 1490 1490 1491 1492 1493 1494 1496 1497 1499 1500 1501 1502 1503 1504 1505 1505 1506 1506 1507 1507 1508 1508 1508 1509 1509
1488 1499 1506 1497 1488 1487 1489 1496 1507 1517 1523 1527 1529 1519 1489 1490 1489 1489 1489 1490 1490 1491 1491 1492 1493 1494 1495 1497 1498 1499 1500 1501 1502 1502 1503 1503 1504 1504 1505 1505 1505 1506 1506 1506
1487 1499 1513 1509 1503 1493 1493 1496 1501 1509 1519 1527 1528 1513 1490 1489 1488 1488 1488 1488 1489 1489 1490 1491 1492 1493 1493 1495 1496 1497 1498 1499 1500 1500 1500 1501 1501 1502 1502 1502 1503 1503 1503 1503
1481 1498 1506 1511 1507 1498 1497 1496 1499 1505 1517 1520 1515 1504 1495 1492 1490 1489 1488 1488 1488 1488 1489 1490 1490 1491 1492 1493 1494 1495 1496 1497 1498 1498 1498 1499 1499 1499 1499 1500 1500 1500 1500 1500
1482 1497 1497 1496 1492 1492 1493 1494 1495 1499 1502 1507 1502 1500 1493 1490 1489 1488 1488 1487 1487 1487 1488 1488 1489 1489 1490 1491 1492 1493 1494 1495 1496 1497 1497 1497 1497 1497 1497 1497 1497 1497 1497 1497
1485 1494 1495 1496 1492 1492 1493 1492 1492 1493 1495 1497 1495 1495 1487 1487 1488 1488 1487 1487 1486 1486 1486 1487 1487 1488 1488 1489 1490 1491 1492 1493 1494 1494 1495 1495 1495 1495 1495 1495 1495 1495 1495 1495
1490 1494 1501 1504 1496 1493 1500 1492 1491 1491 1490 1492 1495 1490 1486 1487 1486 1486 1486 1485 1485 1485 1485 1485 1485 1486 1486 1487 1488 1489 1490 1491 1491 1492 1492 1492 1492 1492 1492 1493 1492 1492 1492 1492
1489 1497 1504 1507 1503 1510 1495 1483 1483 1485 1485 1485 1485 1484 1484 1483 1483 1484 1485 1484 1484 1484 1483 1484 1485 1485 1485 1486 1487 1487 1489 1489 1489 1489 1489 1490 1490 1490 1490 1490 1490 1490 1490 1490
1483 1492 1505 1511 1510 1502 1490 1482 1482 1485 1485 1481 1482 1482 1483 1483 1483 1484 1484 1484 1483 1483 1483 1483 1484 1484 1484 1485 1485 1486 1487 1487 1487 1487 1487 1488 1488 1488 1488 1488 1488 1488 1487 1487
1485 1489 1500 1508 1506 1506 1490 1478 1477 1481 1486 1478 1478 1479 1481 1482 1487 1484 1482 1482 1482 1482 1482 1482 1482 1483 1483 1483 1484 1485 1485 1485 1485 1485 1485 1486 1486 1486 1486 1486 1486 1486 1485 1485
1492 1496 1501 1505 1503 1495 1480 1476 1477 1490 1485 1474 1475 1476 1478 1479 1480 1480 1479 1480 1480 1480 1481 1481 1481 1481 1482 1482 1483 1482 1483 1483 1483 1483 1484 1484 1484 1484 1484 1484 1484 1483 1483 1482
1492 1497 1500 1504 1503 1496 1475 1476 1479 1477 1471 1471 1473 1473 1475 1476 1476 1477 1477 1478 1478 1478 1479 1479 1479 1479 1480 1480 1481 1481 1481 1481 1482 1482 1481 1482 1482 1482 1482 1482 1481 1481 1480 1479
1488 1487 1489 1489 1487 1476 1473 1473 1472 1471 1470 1470 1471 1472 1473 1473 1474 1474 1475 1475 1476 1476 1477 1477 1477 1477 1478 1479 1479 1479 1479 1480 1480 1480 1479 1479 1479 1480 1480 1479 1479 1478 1477 1476
1483 1481 1483 1483 1476 1472 1471 1470 1469 1469 1469 1469 1469 1470 1470 1471 1471 1472 1472 1473 1474 1474 1475 1475 1476 1476 1476 1477 1477 1477 1478 1478 1479 1478 1478 1478 1478 1478 1477 1477 1476 1475 1474 1473
1479 1480 1481 1480 1474 1470 1468 1468 1468 1467 1467 1467 1468 1468 1469 1469 1469 1470 1470 1471 1472 1472 1473 1473 1474 1474 1474 1475 1475 1476 1476 1477 1477 1477 1477 1477 1476 1476 1475 1474 1474 1472 1472 1471
1475 1476 1478 1476 1470 1469 1467 1466 1466 1465 1465 1465 1465 1465 1466 1466 1466 1467 1468 1469 1470 1471 1471 1472 1472 1472 1473 1473 1473 1474 1474 1474 1474 1475 1475 1475 1474 1474 1473 1472 1472 1470 1469 1468